Location: Fort Worth, Tx
(32.7431°N, 97.3695°W)
Time: 23:38:23
(UTC-04:00)

Vanguard 2 - Pass Details

Date: 28 February 2024
Orbit: 552 x 2916 km, 32.9° (Epoch: 24 April)

Event Time Altitude Azimuth Distance (km) Brightness Sun altitude
Rises 01:25:23 0° 285° (WNW) 5,798 12.1 -65.1°
Reaches altitude 10° 01:28:52 10° 281° (WNW) 5,039 11.7 -65.2°
Enters shadow 01:29:28 12° 281° (W) 4,916 11.6 -65.2°
